Location: Altleiningen
(49.5078°N, 8.0741°E)
Time: 15:28:36
(UTC+00:00)

Cosmos 489 Rocket - Pass Details

Date: 14 June 2025
Orbit: 952 x 982 km, 74.0° (Epoch: 20 July)

Event Time Altitude Azimuth Distance (km) Brightness Sun altitude
Rises 21:21:27 0° 336° (NNW) 3,641 9.6 -11.9°
Reaches altitude 10° 21:23:59 10° 337° (NNW) 2,690 8.3 -12.1°
Maximum altitude 21:30:13 85° 67° (ENE) 963 4.5 -12.6°
Enters shadow 21:35:03 18° 155° (SSE) 2,172 5.7 -13.0°
